Theta_e
295 289 287 287 290 290 292 294 292 291 293 292 292 290 290 290 290 293 295 295 299 296 295 296 297 297 307 315 318 321 323 322 322 321 321 322 323 323 324 325 326 327 329 333 333 334 334 335 336 336 335 334 335 336 336 336 337 338 337 336 334 334 336 335 333 333 333 332 332 332 331 329 329 328 329 329 330 331 330 330 331 332 333 334 334 333
294 288 288 291 292 293 291 293 293 293 292 293 291 291 289 291 290 293 294 295 297 296 296 297 296 296 306 315 318 321 320 318 320 320 321 322 323 323 324 324 325 328 331 331 331 333 334 333 334 334 333 333 332 333 335 336 336 338 337 334 333 334 334 334 335 334 333 334 334 333 331 330 329 327 327 326 327 326 327 327 327 329 329 330 330 330
288 286 290 291 291 292 291 292 293 292 291 290 292 291 290 291 293 293 295 302 298 295 295 298 294 298 308 315 318 318 318 319 322 322 322 323 322 322 323 324 326 327 327 328 329 331 331 332 332 332 332 332 333 334 335 336 336 335 334 333 333 334 334 335 335 335 334 336 337 335 332 333 328 328 328 328 326 324 323 324 325 326 328 327 326 327
285 288 291 292 291 290 290 291 292 291 291 290 291 290 289 291 290 288 292 308 303 295 299 300 296 304 308 314 316 319 319 321 324 324 324 325 323 323 323 324 324 325 326 326 327 329 331 332 331 331 331 331 333 333 334 335 333 332 331 333 333 333 335 335 335 335 337 337 337 336 332 328 326 323 324 324 325 324 323 321 322 324 325 325 325 325
287 290 294 292 291 291 289 290 290 290 290 290 290 290 291 288 291 292 294 307 307 305 306 302 302 303 308 308 311 316 320 320 321 322 323 324 325 325 326 325 325 325 326 326 327 328 330 330 330 330 330 331 331 332 333 334 333 332 331 332 333 335 335 334 335 335 334 333 330 327 326 326 324 324 325 323 321 322 322 321 321 322 323 324 324 324
289 292 294 292 291 290 289 287 289 290 289 290 290 291 291 292 292 300 303 298 296 297 304 298 291 293 305 306 308 313 315 315 319 318 319 321 322 323 323 324 325 326 327 326 327 328 329 330 330 330 330 330 330 331 333 333 331 332 332 332 334 336 337 334 334 335 334 332 328 326 324 323 323 322 322 321 319 319 319 318 321 322 322 322 322 323
290 292 292 291 290 289 289 288 290 291 289 289 290 293 291 294 300 302 300 295 291 289 298 305 289 286 303 303 307 310 312 313 317 317 318 320 320 321 322 323 324 325 325 326 327 329 329 329 329 329 329 330 330 331 333 333 333 333 332 332 335 337 336 334 334 335 334 332 331 330 329 327 325 322 318 319 319 318 318 320 320 320 322 322 322 322
290 291 290 291 291 289 288 287 289 291 289 288 293 292 292 291 293 300 300 295 297 300 303 303 297 290 293 300 308 310 309 311 313 315 317 319 320 320 322 323 324 325 325 325 326 328 330 330 329 328 329 330 330 332 332 331 332 332 332 332 335 337 336 334 334 334 333 332 331 330 328 326 325 321 318 318 318 319 319 319 319 319 319 321 321 321
291 289 290 289 290 289 287 290 291 292 289 290 292 293 292 293 292 296 296 296 297 298 294 298 301 290 290 300 308 310 306 308 309 312 315 318 320 322 322 323 324 325 326 326 326 327 329 329 329 329 329 331 331 331 331 331 332 333 332 332 334 336 334 333 334 333 331 331 331 330 328 324 322 321 320 319 319 318 319 317 317 318 319 319 319 319
291 293 292 292 290 288 290 291 292 292 289 292 295 294 294 293 293 293 292 292 295 294 289 295 299 289 289 301 304 308 306 305 308 312 315 317 319 320 322 323 325 325 325 326 327 329 330 331 330 331 331 331 331 332 332 332 333 332 332 331 332 333 332 333 334 334 332 331 330 326 325 322 321 319 318 319 317 317 317 316 317 318 318 318 318 318
291 297 296 293 290 292 292 293 293 293 293 294 295 293 292 292 292 293 293 292 290 285 289 296 299 293 287 298 302 301 303 308 310 312 315 317 319 320 322 324 324 324 325 326 326 329 331 332 331 331 330 330 331 331 331 331 331 332 331 330 330 331 331 333 333 333 331 330 329 325 323 321 318 317 317 317 317 316 317 316 317 317 317 317 317 317
291 292 292 293 296 293 294 290 294 295 294 294 292 291 291 290 291 291 290 291 284 283 289 295 298 296 287 294 303 309 312 311 312 311 313 315 317 319 321 323 324 324 324 325 326 327 329 329 330 330 329 330 329 330 330 330 331 331 331 330 329 330 330 331 332 333 331 329 328 324 322 319 318 318 318 319 318 318 316 315 315 316 316 316 316 316
288 289 292 292 298 295 292 290 290 293 293 293 292 291 286 284 285 281 286 281 282 283 287 289 298 294 292 298 304 309 312 313 314 315 316 316 317 319 320 322 324 324 324 325 325 326 327 327 327 328 329 329 328 328 329 329 330 330 329 329 328 327 329 330 331 330 330 328 326 323 320 318 319 320 320 319 317 317 316 315 315 316 315 314 314 314
286 289 289 291 293 297 294 288 287 287 290 291 289 288 284 281 280 277 281 284 285 286 288 290 299 291 297 300 305 307 312 315 315 316 318 318 319 320 321 322 323 324 324 325 325 326 327 328 328 328 328 328 329 329 329 329 329 329 329 329 328 327 329 329 329 329 328 327 324 322 320 319 320 320 319 318 316 316 316 316 316 316 315 314 314 314
280 281 287 289 287 295 294 292 291 289 290 291 293 291 287 286 282 277 281 278 281 285 290 294 289 287 289 293 307 309 312 316 317 317 318 318 319 322 322 323 323 323 324 325 325 325 327 328 328 328 328 329 329 330 330 329 329 329 328 327 327 326 327 328 328 328 327 325 323 321 320 320 320 319 318 317 316 315 314 315 316 315 315 314 314 313
284 284 289 293 293 294 292 294 294 291 290 292 292 293 289 287 292 284 285 286 285 286 287 291 289 295 294 302 304 309 311 312 316 317 317 317 318 320 320 321 321 322 323 324 325 326 327 328 329 328 328 329 329 330 329 328 328 328 327 327 327 326 326 327 326 327 325 323 321 320 319 318 318 318 317 314 313 313 315 315 314 314 315 314 313 313
285 282 289 291 292 293 294 294 293 295 283 289 290 286 290 296 293 285 285 288 286 285 284 291 293 295 300 302 308 310 310 310 311 313 315 317 318 320 320 320 321 322 323 324 324 325 326 328 329 329 329 329 329 329 328 328 328 327 326 326 325 325 325 326 326 325 323 321 319 318 318 317 316 315 313 312 312 313 314 314 313 313 313 313 313 312
283 284 289 289 288 293 296 296 295 295 295 290 286 290 293 295 295 291 283 284 284 281 283 290 288 292 290 287 308 309 308 311 312 312 314 317 319 319 319 321 321 322 323 324 325 326 327 328 328 329 329 329 329 329 329 329 329 328 327 326 324 324 323 324 324 322 321 319 318 316 315 316 315 313 312 312 312 312 312 312 312 312 312 312 312 312
289 282 287 290 292 293 293 295 292 294 294 292 290 296 290 284 284 290 287 279 280 279 282 288 290 292 293 292 302 303 307 310 312 313 314 315 317 318 320 321 322 323 323 323 324 325 325 327 327 328 329 329 330 329 330 329 328 326 326 325 324 323 324 322 321 321 320 319 316 315 314 314 313 312 312 312 312 312 312 311 311 312 312 312 312 311
290 283 285 290 291 292 292 292 285 289 292 293 296 293 295 293 289 286 286 289 288 282 281 284 289 286 296 297 302 303 309 311 313 313 313 315 317 318 319 320 321 321 322 323 324 324 325 327 329 328 328 328 327 327 328 328 327 324 323 324 323 322 322 322 320 319 318 316 315 314 314 313 311 311 310 311 312 312 311 311 311 311 312 312 312 311
286 290 281 287 290 291 285 289 288 289 287 288 289 289 290 292 293 293 292 288 286 283 283 283 283 290 299 303 304 305 308 311 315 314 315 317 318 320 321 321 321 321 322 323 324 324 326 326 328 328 328 327 327 327 326 326 324 322 322 321 320 319 320 320 319 318 316 315 314 313 312 311 311 311 311 311 312 312 311 311 311 311 312 311 310 310
286 287 283 286 286 286 288 291 292 292 292 290 289 288 289 288 286 283 282 289 288 287 283 283 282 293 304 308 307 307 311 312 315 316 317 318 319 320 321 322 321 321 322 323 324 325 326 327 328 328 326 325 325 325 324 323 322 321 322 320 319 318 318 318 317 317 315 315 314 313 312 311 311 311 312 312 311 311 310 310 310 311 310 310 310 310
292 290 287 283 286 288 289 292 295 295 294 293 292 290 292 292 291 286 281 284 288 288 291 291 284 289 303 303 305 308 309 309 313 317 317 318 319 320 321 321 322 323 323 323 324 325 326 326 327 327 324 323 323 323 322 321 319 320 321 320 318 317 317 317 316 316 315 314 313 312 312 311 312 312 312 312 312 310 309 309 310 310 310 309 309 310
294 287 284 286 288 289 290 290 292 294 293 289 291 292 291 289 290 289 289 291 287 289 286 287 283 289 303 303 307 308 309 311 314 315 316 318 319 319 320 321 321 322 323 324 324 326 326 327 326 324 322 322 321 321 320 320 318 318 320 319 317 316 316 315 314 314 315 313 312 311 311 312 312 313 312 312 311 309 309 309 309 309 309 308 308 308
285 288 286 283 283 284 286 289 289 291 292 290 290 292 292 292 292 292 293 294 286 288 288 286 281 288 302 305 312 312 312 312 313 316 318 317 319 319 319 320 321 322 322 323 323 324 325 325 323 321 321 321 321 321 320 320 317 316 316 316 316 315 315 315 314 314 314 312 310 310 311 312 312 312 311 310 309 308 308 308 308 309 308 308 308 307
288 289 286 281 277 275 275 277 280 283 287 291 292 291 290 291 292 290 286 288 284 290 289 286 286 292 299 307 310 313 313 313 315 316 318 320 319 318 319 320 320 321 321 322 322 322 322 322 322 321 321 321 321 321 320 320 318 318 317 315 314 314 314 315 315 314 313 312 310 310 310 311 311 311 310 309 308 307 307 307 308 308 308 307 307 307
289 291 289 289 285 283 285 287 289 289 289 286 289 290 289 291 293 295 294 287 285 289 287 291 291 292 294 297 301 311 313 312 313 315 316 317 318 319 320 320 320 321 321 322 322 321 321 320 319 320 321 321 320 320 319 317 316 316 315 314 314 314 315 315 315 313 312 312 311 310 310 310 310 309 309 309 308 307 307 307 308 307 307 307 307 307
293 288 290 290 289 289 290 290 291 290 288 289 289 289 290 290 293 293 288 287 296 289 285 293 297 292 293 296 298 305 312 314 314 315 316 317 318 319 319 320 317 321 322 323 322 320 318 318 318 317 317 317 318 317 317 315 314 314 314 314 313 313 314 314 312 311 311 311 310 309 308 309 309 309 308 308 307 306 307 307 307 307 307 307 306 306
292 286 291 289 289 290 291 291 291 290 290 290 290 290 289 290 292 291 292 294 295 288 286 295 297 295 295 298 301 303 310 313 314 315 316 318 319 319 319 319 318 319 320 320 322 320 319 318 318 318 317 316 316 315 315 314 314 314 314 315 314 313 314 313 311 310 310 310 308 307 307 307 307 307 307 306 306 306 306 306 307 306 306 306 306 306
293 289 292 290 289 290 292 292 291 290 289 289 290 290 291 290 292 292 293 294 294 293 295 296 299 299 300 301 303 307 311 314 315 316 317 317 317 318 319 318 319 319 319 319 320 321 320 319 319 318 318 317 316 316 316 315 315 314 314 314 314 313 314 313 310 310 310 309 308 307 306 306 305 305 305 305 305 305 305 305 305 305 305 305 305 305
292 287 292 291 288 289 291 291 289 290 289 288 290 291 291 291 292 293 293 295 295 296 296 293 295 296 302 307 306 310 313 315 315 314 315 316 317 318 318 318 318 319 319 320 320 320 320 320 319 319 317 317 317 316 315 314 313 312 313 313 312 312 312 312 310 310 309 308 307 306 305 305 304 304 304 304 305 305 304 304 305 304 304 304 304 303
293 288 291 291 285 287 290 291 290 289 289 290 290 290 290 290 290 292 291 296 292 292 296 295 293 295 302 304 307 310 313 313 313 314 315 316 318 318 317 318 318 319 319 320 320 320 320 319 318 318 317 317 317 315 314 313 313 312 311 311 311 311 311 310 310 310 309 308 306 305 304 304 303 303 303 303 303 303 304 304 304 303 303 303 303 303
292 291 287 288 285 285 291 289 290 289 288 285 286 290 291 293 294 294 294 296 297 298 295 290 293 300 305 306 308 310 312 314 315 314 315 316 318 318 318 318 319 319 320 320 320 319 319 318 319 318 317 316 315 315 315 314 313 312 311 311 313 312 311 310 310 310 308 306 305 304 304 303 302 302 302 302 302 303 303 303 303 302 302 302 303 303
293 291 288 292 284 286 290 290 290 287 280 282 294 295 295 292 293 292 292 294 298 299 297 300 299 303 303 307 307 311 312 313 316 317 319 318 317 318 319 320 320 320 321 322 322 321 320 320 319 319 318 318 317 317 317 316 314 314 313 312 312 312 312 311 310 308 305 304 304 304 303 301 301 301 301 301 301 301 301 301 301 302 303 302 302 302
294 291 289 290 286 285 289 289 284 279 282 294 294 295 295 299 295 295 296 297 298 299 300 298 300 302 304 309 311 310 312 313 315 317 317 319 320 319 319 320 320 320 320 321 322 322 322 321 320 319 318 318 318 318 316 315 315 314 312 311 310 310 309 309 307 306 305 304 304 303 302 301 300 300 300 300 300 300 300 300 301 300 301 301 301 301
289 289 289 287 288 288 286 286 278 281 293 295 295 296 297 296 296 295 294 297 298 299 300 302 305 306 305 307 309 310 312 314 316 317 318 320 321 322 321 320 320 321 321 322 323 323 323 322 320 319 318 318 318 317 316 315 314 312 311 311 310 309 309 308 306 305 304 304 304 303 302 301 300 300 299 298 298 298 299 299 299 299 299 299 300 301
296 295 291 287 289 284 284 285 286 291 293 295 295 296 296 296 294 293 289 293 301 300 300 301 304 304 303 306 310 312 314 315 314 316 319 320 321 323 323 322 322 322 323 324 325 325 325 325 323 321 320 319 318 316 315 315 314 312 311 310 310 310 309 308 306 304 304 303 303 303 302 301 300 299 298 297 296 297 297 297 297 298 298 298 298 298
297 292 292 288 285 287 286 286 287 287 284 289 297 300 301 300 302 300 298 294 304 299 300 302 302 303 306 309 311 313 314 311 308 312 317 320 321 322 323 324 325 325 325 325 326 326 326 326 324 321 320 318 317 316 315 314 312 311 310 309 309 308 307 307 306 305 305 303 303 303 302 301 300 299 298 297 296 295 296 297 297 297 298 297 296 296
295 297 295 290 287 287 286 284 284 283 286 295 297 301 300 299 300 300 294 290 303 302 300 301 302 305 309 310 312 313 310 306 307 313 318 319 321 322 321 323 324 325 325 325 325 324 325 325 324 321 320 319 317 316 315 313 312 310 309 308 307 307 306 306 307 306 305 304 304 303 302 301 300 299 298 297 296 296 296 296 297 297 298 297 297 297
295 291 289 288 285 284 285 285 285 285 288 295 300 300 299 299 300 297 286 287 306 300 299 300 302 304 309 313 313 312 309 303 307 311 316 320 320 322 322 322 323 324 324 325 326 326 325 324 322 319 319 317 317 317 315 313 312 310 309 308 308 307 306 307 308 308 307 305 304 303 303 301 300 299 298 298 297 297 297 297 297 297 296 296 296 296
290 288 289 287 287 285 283 287 287 288 293 297 297 301 299 299 298 289 285 292 301 302 300 301 303 305 309 311 313 310 312 312 313 314 315 320 320 321 323 324 324 324 324 324 324 318 324 323 322 320 319 318 318 317 315 313 312 310 309 308 307 306 308 309 310 308 306 305 304 303 302 301 300 300 299 299 298 298 298 297 297 296 295 295 295 295
287 287 285 285 286 287 287 286 286 288 295 297 301 301 302 296 288 287 298 303 303 305 306 302 304 304 308 313 314 314 312 312 314 315 317 319 321 322 322 323 324 324 325 324 321 323 324 322 322 321 320 320 317 316 314 313 311 310 309 307 306 308 311 310 309 308 306 304 303 303 302 302 301 301 300 299 299 297 297 297 296 296 296 295 294 294
290 287 286 287 286 285 285 286 286 283 292 303 304 299 299 293 295 303 305 306 302 306 307 307 304 305 307 311 314 313 313 312 313 316 318 319 320 321 321 322 322 322 322 322 321 322 322 321 320 320 319 318 317 316 314 313 311 309 308 307 308 310 311 310 308 307 306 304 303 303 303 303 302 301 300 299 298 297 296 296 296 296 296 295 294 294
295 289 287 287 290 287 285 284 286 293 301 303 301 295 303 304 304 305 305 310 311 310 310 310 308 306 307 312 313 313 313 313 313 315 317 318 320 321 321 322 323 322 322 322 322 322 322 321 321 320 319 318 316 315 314 312 310 308 308 308 311 310 310 308 307 306 304 303 303 303 303 304 302 301 300 299 299 298 298 296 296 295 295 294 294 293
294 295 294 290 294 290 289 292 298 299 301 304 304 306 305 308 308 308 308 309 310 313 309 310 312 308 309 311 312 313 313 314 315 317 318 318 319 319 320 321 322 322 322 321 321 321 321 321 320 319 317 316 315 315 314 314 312 309 307 309 310 309 308 307 306 305 303 303 304 303 303 303 302 301 301 300 300 298 297 296 296 294 295 294 294 293
297 295 296 297 295 296 298 298 300 302 304 305 306 306 305 308 308 308 309 312 313 313 312 312 312 310 307 311 312 311 314 314 315 314 316 318 319 319 320 320 321 322 322 322 322 320 321 321 320 318 316 315 315 314 313 314 313 309 310 310 309 310 309 308 305 304 303 303 303 303 303 302 302 301 301 301 300 299 297 296 295 295 294 294 294 294
297 297 297 295 297 292 289 300 302 304 306 306 307 308 308 307 307 310 311 311 312 312 312 312 311 311 309 309 311 311 312 311 315 315 315 317 318 318 319 319 320 320 320 320 320 318 321 319 317 316 314 313 314 313 313 314 314 313 312 309 310 310 309 307 306 304 303 303 303 303 303 303 301 300 300 299 299 298 297 296 296 296 294 294 294 294
296 299 298 296 296 292 294 301 303 303 304 304 305 307 307 308 309 310 309 310 310 311 310 310 312 312 310 311 310 311 312 310 313 314 314 316 317 317 318 318 318 319 319 320 319 319 320 319 318 315 313 312 313 313 313 313 314 313 311 310 309 309 308 306 305 304 304 303 303 302 302 302 295 298 300 299 299 298 298 297 297 296 295 294 295 294
298 298 294 298 296 300 301 302 301 304 306 306 305 305 306 306 308 308 307 309 310 312 313 313 310 311 313 312 313 315 314 311 311 314 314 314 315 316 317 317 318 319 319 318 317 318 318 318 316 315 314 313 314 314 314 314 313 312 310 309 309 308 306 304 302 304 305 305 303 302 301 301 300 301 300 299 299 300 300 298 297 297 297 299 299 298
298 297 298 298 294 295 297 302 304 298 295 304 305 307 307 306 306 307 309 310 309 310 311 313 313 311 311 311 313 314 314 313 312 313 314 314 315 316 316 316 317 318 317 318 317 319 318 318 316 315 314 313 314 314 313 313 312 311 310 308 308 308 306 304 303 304 304 304 303 302 301 301 301 301 300 300 299 300 300 294 295 297 298 298 296 294
300 301 299 296 295 296 302 303 304 305 305 306 307 306 307 307 308 309 309 308 309 309 309 312 314 315 314 311 310 313 313 314 312 312 313 313 314 316 316 315 315 316 316 317 317 317 317 316 315 314 313 313 313 314 313 312 311 310 308 307 308 308 307 305 303 302 303 303 302 300 300 300 301 301 300 300 300 300 299 298 299 294 294 295 295 293
Wind_Speed
8 12 14 17 18 21 17 14 8 6 4 9 8 4 7 7 4 0 2 6 9 9 14 16 14 13 10 12 14 15 14 14 13 14 14 13 11 12 13 14 15 15 13 7 7 7 8 8 7 8 9 10 10 11 11 11 12 12 12 12 13 12 11 10 10 9 8 8 7 6 7 7 7 7 7 4 4 4 5 5 5 5 4 5 5 5
8 11 15 19 14 11 9 6 2 3 2 9 11 10 7 10 7 9 11 5 9 10 6 2 8 11 11 11 12 12 13 16 16 16 16 16 14 13 15 15 16 14 8 7 6 7 7 8 9 9 9 11 12 11 12 12 13 11 11 10 8 7 8 8 7 7 9 8 9 8 7 8 8 7 5 5 5 5 5 6 5 5 5 5 5 5
12 16 17 8 8 8 8 7 10 0 4 2 8 9 7 8 5 4 5 2 3 6 3 5 11 7 7 9 11 14 15 15 16 15 16 17 16 15 14 16 14 12 12 9 8 8 8 9 9 10 10 11 12 12 13 12 12 12 9 8 9 8 8 6 6 8 8 8 7 8 8 6 6 4 3 5 6 6 6 6 6 5 5 5 5 5
11 16 4 10 8 12 10 10 10 6 0 2 5 10 11 7 11 8 5 2 2 3 3 6 8 1 3 6 11 12 14 13 14 15 14 13 15 16 16 13 11 13 12 12 10 10 9 9 10 10 11 11 12 12 12 12 10 8 9 8 9 9 11 7 10 9 9 9 8 8 9 7 6 5 4 6 6 7 7 7 5 5 5 6 5 5
8 4 11 11 12 13 14 12 13 10 7 2 1 3 6 7 6 3 8 4 4 4 5 10 5 1 5 9 10 10 9 10 10 6 11 11 12 13 10 11 12 13 13 12 10 11 10 10 12 11 11 11 11 11 11 11 7 7 11 12 13 10 10 11 11 11 11 11 11 10 9 9 8 5 4 6 6 5 6 5 5 5 5 5 5 5
6 2 9 16 14 12 13 12 16 13 9 4 5 5 4 11 8 6 11 11 6 3 7 12 5 7 8 12 13 11 8 9 9 11 12 11 10 9 12 14 13 12 12 12 12 12 11 10 11 11 13 12 11 11 10 10 11 11 11 12 13 11 12 10 12 12 11 11 12 10 9 8 7 6 5 5 6 4 4 5 4 6 6 5 6 5
7 3 10 16 16 13 13 12 13 13 11 6 5 9 3 6 6 9 11 10 8 10 10 6 12 6 3 12 13 13 14 14 11 13 13 11 10 10 12 12 13 13 12 11 11 11 11 12 12 12 13 13 12 11 10 9 10 12 10 11 12 11 10 11 11 13 11 12 11 10 9 8 8 7 3 4 4 5 5 5 5 5 5 5 6 6
7 10 5 5 16 16 13 13 13 19 12 11 4 7 8 4 6 6 5 7 1 5 4 5 5 8 3 9 13 14 16 16 16 14 14 13 13 14 14 13 13 13 12 11 12 12 12 13 14 14 14 12 12 11 11 11 11 12 13 12 11 9 10 11 12 12 11 12 12 11 8 6 5 6 7 6 5 5 5 6 6 5 5 5 5 6
13 11 8 9 12 13 15 10 12 16 13 5 3 7 9 8 5 4 4 3 1 5 7 9 4 5 10 3 7 13 14 17 19 18 17 19 20 18 18 17 16 14 12 12 12 14 13 13 13 13 12 12 13 12 12 11 11 12 12 12 11 9 9 10 12 11 9 8 10 9 7 7 5 7 8 7 6 6 5 7 5 5 5 6 6 6
6 12 9 7 10 11 4 10 14 14 13 5 6 5 4 4 4 4 2 3 3 4 10 13 12 10 7 4 6 12 13 17 18 20 20 21 21 21 16 16 17 14 13 13 14 12 12 13 14 14 13 13 12 11 12 12 12 12 11 12 12 11 8 10 11 10 10 9 7 7 7 11 9 7 7 7 7 6 5 6 5 5 5 5 5 6
2 2 7 7 9 5 7 8 13 15 10 5 9 9 4 4 3 2 1 1 1 4 13 10 13 10 9 8 11 13 14 14 12 11 14 18 19 19 19 14 13 15 15 14 15 13 12 12 14 15 14 13 12 10 12 12 12 11 12 13 13 12 10 9 10 10 10 10 8 8 8 10 11 10 9 8 7 6 5 6 5 5 5 5 5 5
4 1 7 3 5 2 6 8 11 16 9 12 9 13 6 2 3 3 1 2 5 9 3 7 11 9 12 6 9 11 5 14 14 15 18 19 20 20 19 17 16 18 16 16 15 14 11 14 16 15 15 14 13 13 13 12 12 13 12 13 14 12 9 9 10 11 10 10 8 7 9 10 10 11 8 9 9 7 7 6 6 5 5 5 5 6
8 5 1 1 5 10 9 10 7 9 8 13 10 13 13 7 4 5 5 5 11 9 2 2 10 3 16 5 6 14 13 13 16 15 16 19 19 19 19 20 17 19 19 17 16 14 11 14 16 16 15 15 15 14 14 13 13 13 12 14 14 13 10 10 11 12 11 10 9 8 9 9 8 8 8 8 8 6 7 6 6 6 6 6 6 6
7 1 3 4 4 11 11 12 11 11 12 14 15 16 16 11 9 7 11 3 2 1 1 4 11 11 3 5 10 12 17 17 18 18 15 11 13 17 18 17 17 18 19 18 16 16 12 14 13 16 15 16 14 14 14 13 13 11 12 14 14 14 14 10 10 12 12 9 8 9 9 9 8 8 7 6 7 6 5 5 6 6 6 6 6 7
11 9 10 10 7 10 14 11 13 10 15 11 2 11 12 10 6 7 8 9 7 4 4 3 7 5 9 5 8 15 16 16 13 11 9 7 7 10 12 13 15 16 17 17 16 17 14 13 16 15 14 14 15 15 14 12 9 9 10 12 13 14 15 10 9 12 12 9 9 8 8 8 7 7 7 6 5 5 6 5 6 6 6 7 6 7
15 2 3 9 0 11 13 6 5 6 11 6 3 1 3 11 2 5 1 3 4 4 3 6 4 1 3 2 3 4 2 3 8 10 9 9 9 11 12 14 15 18 18 17 17 17 16 14 13 12 13 15 15 16 13 14 13 12 12 12 12 10 9 10 10 9 8 9 8 9 9 8 7 7 7 6 5 5 5 6 6 7 6 6 7 7
8 9 2 8 1 12 13 9 9 10 11 9 5 14 9 5 5 4 2 4 3 1 5 2 4 3 5 3 3 0 4 8 8 12 12 12 12 14 14 15 17 18 19 18 16 15 18 14 14 13 15 15 15 15 14 14 13 14 14 12 11 11 11 10 10 10 9 9 10 9 9 9 8 8 8 7 7 7 6 6 6 6 7 7 7 7
9 6 3 10 13 10 11 14 10 15 2 7 9 7 5 3 4 2 4 1 3 6 4 2 9 2 5 5 3 1 5 8 8 13 15 13 13 15 14 15 16 19 20 20 17 15 17 13 14 13 15 16 17 17 17 16 14 14 14 14 14 12 12 10 10 9 9 11 10 9 8 8 8 8 8 8 9 7 7 7 6 7 7 7 7 7
3 7 6 11 14 10 3 11 9 7 2 10 12 8 12 8 9 2 1 3 5 4 2 5 1 3 6 7 3 7 8 10 11 10 10 12 15 17 14 15 16 17 17 17 18 17 17 14 13 13 15 18 17 16 16 15 12 10 11 12 12 14 14 14 8 8 7 9 7 7 9 10 8 7 8 7 8 7 8 9 8 7 8 8 8 8
2 5 6 1 11 7 8 10 13 13 5 5 5 10 0 1 8 5 2 2 2 3 2 5 3 8 7 7 7 10 12 13 12 10 13 16 18 15 14 15 18 19 19 19 18 18 18 19 16 15 15 18 17 16 15 16 14 10 10 12 10 9 9 10 11 9 9 8 7 8 9 8 8 8 8 8 9 8 9 9 8 9 9 8 8 8
0 2 6 3 2 8 10 10 13 14 12 9 12 10 4 3 3 1 1 5 5 3 3 3 6 5 4 7 8 11 11 12 13 15 14 15 15 15 15 15 17 19 18 19 18 18 18 19 17 13 14 15 15 15 14 14 13 10 9 10 11 13 14 12 9 10 9 8 8 11 10 10 9 10 9 9 9 9 9 8 8 8 8 8 8 9
1 1 2 4 8 11 6 3 3 11 11 11 12 11 11 9 7 13 10 3 1 2 1 3 8 2 4 4 12 13 11 12 15 16 14 13 14 14 13 15 17 17 19 19 19 18 17 16 16 13 11 11 16 15 16 13 11 12 14 13 10 10 11 12 9 9 10 9 10 11 11 10 10 10 9 10 10 9 9 8 8 9 9 9 8 9
2 1 1 1 4 7 5 8 8 11 12 9 12 8 12 10 8 9 9 7 2 2 3 1 3 2 3 1 4 7 3 3 3 3 2 5 10 11 11 15 16 17 19 19 19 17 15 15 14 15 14 15 17 16 16 12 9 13 16 14 9 10 10 10 10 9 10 10 10 11 11 11 10 11 12 11 10 10 9 8 9 9 9 9 8 8
4 2 1 1 3 2 3 2 2 9 9 4 7 5 9 14 17 11 3 5 6 3 6 3 2 6 2 2 3 4 5 3 4 7 6 6 8 11 14 17 17 17 17 17 17 14 11 14 13 13 16 15 14 15 15 12 10 11 15 14 10 11 13 11 9 10 11 10 10 10 11 11 11 12 11 11 9 10 9 9 8 8 9 9 8 8
3 3 2 4 5 6 4 4 3 5 10 10 11 8 11 3 5 2 5 1 7 13 13 5 8 6 2 1 2 0 2 4 8 9 9 9 9 13 15 15 15 16 17 17 16 14 14 16 15 13 15 16 15 14 15 15 13 10 9 10 11 9 12 12 10 10 11 12 13 11 11 11 11 11 11 10 9 11 10 9 9 8 9 9 9 9
3 2 3 3 8 8 9 10 12 13 15 9 6 6 3 10 9 6 8 5 9 3 11 10 8 12 11 4 1 1 2 3 4 6 8 9 13 15 15 15 16 16 17 15 14 15 17 15 15 15 15 15 14 15 13 14 15 15 12 10 8 10 10 13 12 12 12 12 12 11 12 11 11 11 11 11 10 11 10 9 9 9 8 10 10 9
2 1 3 2 4 7 8 2 5 6 5 6 9 10 8 7 11 8 2 3 10 4 6 8 8 11 19 19 7 4 5 6 7 7 9 10 12 14 16 16 16 16 18 18 16 14 12 13 15 17 18 16 18 16 16 13 13 13 12 12 10 10 11 12 12 12 11 12 12 12 12 11 11 10 11 10 10 9 9 10 9 10 9 9 10 10
1 2 6 7 5 6 2 5 4 11 16 18 15 13 11 10 8 8 8 7 6 5 8 3 5 11 20 22 18 6 7 6 7 9 10 11 14 15 17 17 17 16 15 15 13 13 15 14 13 12 13 14 16 16 12 10 11 11 12 14 11 10 9 10 11 11 11 11 11 10 11 10 10 10 10 10 10 10 10 9 9 9 8 9 9 10
3 2 1 3 8 7 6 9 7 6 11 12 14 11 13 13 12 14 10 5 9 8 5 4 7 9 15 17 14 10 3 7 9 9 8 11 13 14 16 18 19 18 16 16 16 15 15 16 16 15 16 16 17 16 14 12 11 10 11 12 12 11 11 12 12 12 11 11 11 10 10 10 9 9 10 11 10 10 10 9 9 8 8 8 8 7
2 3 1 2 4 6 9 11 10 12 7 7 11 13 14 15 15 15 12 8 9 6 4 8 6 11 12 15 11 5 3 8 9 10 10 12 16 17 18 19 18 17 17 19 19 17 16 16 17 17 17 16 18 18 15 14 14 12 12 12 13 12 11 12 11 12 12 11 11 10 10 10 9 10 10 11 11 10 10 9 9 8 8 8 8 8
4 1 3 1 3 9 5 3 6 12 9 9 10 12 14 14 14 14 13 8 5 7 0 2 4 8 12 11 9 3 3 5 7 11 14 16 16 18 19 19 18 18 18 18 18 18 18 17 17 17 18 21 20 17 14 12 11 10 10 11 12 12 12 11 12 11 12 11 11 11 11 10 10 10 11 11 10 10 10 10 8 8 9 8 8 8
5 2 2 2 4 5 0 3 6 5 5 8 10 11 12 14 13 10 10 6 8 9 6 4 4 5 9 1 3 1 7 10 12 13 15 15 18 20 20 20 20 21 20 20 19 19 19 19 17 19 19 19 16 16 14 12 11 12 11 11 12 11 10 10 10 12 11 11 11 11 12 10 11 11 11 11 11 11 10 10 9 9 9 8 8 8
5 2 1 0 3 3 2 3 6 8 6 2 8 13 14 12 8 6 3 5 12 11 7 6 7 9 4 3 4 4 6 8 9 14 14 16 18 20 21 22 22 22 20 21 20 20 19 18 17 18 15 15 13 15 16 15 13 13 12 12 12 12 12 11 11 11 11 11 11 11 11 11 12 11 11 11 11 10 10 10 10 9 9 9 8 8
2 2 2 0 2 3 5 5 6 8 5 5 1 1 12 15 11 10 9 10 9 7 6 7 9 3 0 4 8 8 10 9 6 7 7 13 17 17 18 18 19 20 20 21 20 19 19 17 17 15 17 17 16 15 15 15 14 12 12 12 11 13 12 13 12 12 11 11 11 11 11 11 11 11 11 11 10 10 10 10 10 9 8 8 8 8
4 0 3 1 2 4 3 2 5 6 4 3 1 2 1 2 10 15 13 14 13 10 4 6 10 11 10 7 6 2 3 3 3 7 7 12 17 18 20 19 19 20 22 19 19 19 18 19 16 13 15 16 16 14 12 11 10 10 11 12 11 9 10 9 11 10 12 12 11 11 11 11 11 11 11 10 10 10 10 10 8 9 8 8 9 9
3 4 1 1 0 1 1 1 2 3 3 3 2 3 1 3 2 1 5 6 4 12 13 10 10 7 2 6 5 4 5 3 3 7 11 14 17 16 17 18 19 20 22 22 23 22 22 20 19 18 16 14 14 13 13 12 11 12 13 14 13 13 11 11 11 10 9 11 12 12 11 12 11 11 10 10 9 9 9 9 9 9 7 7 6 6
10 3 1 3 1 2 0 1 2 4 2 2 2 3 5 5 7 9 8 9 11 10 10 10 12 5 2 3 3 3 4 4 2 4 10 15 16 14 17 17 19 21 21 21 22 23 19 17 15 15 14 14 15 15 14 12 13 13 13 14 12 13 13 13 12 11 10 10 12 11 11 11 12 12 11 10 10 9 8 8 8 7 7 8 7 7
7 5 1 2 1 0 2 1 0 1 2 0 2 2 2 2 2 0 2 5 3 5 9 10 9 3 3 1 4 6 7 4 3 7 11 14 14 13 10 11 14 14 16 16 16 14 14 15 14 14 15 16 14 14 13 13 12 13 14 13 12 13 13 14 14 14 13 12 10 11 11 11 12 12 12 11 10 9 9 7 6 7 7 8 8 8
5 6 3 1 2 1 1 0 0 1 1 0 1 2 2 2 4 3 3 7 2 5 8 10 8 5 6 8 7 7 6 4 5 2 7 14 13 13 12 11 14 14 16 17 18 17 17 15 16 18 17 17 17 15 15 15 15 13 12 12 12 12 12 13 14 15 14 14 12 10 10 10 11 11 11 12 9 9 10 9 8 7 7 6 7 7
4 2 1 1 2 1 0 0 1 2 2 1 4 3 2 3 4 5 5 3 1 3 4 7 9 8 7 6 9 8 8 4 2 3 3 15 15 15 15 15 15 15 15 16 15 16 16 16 16 17 18 19 18 18 16 17 15 15 14 15 13 14 14 14 16 16 13 11 12 12 11 9 10 10 11 11 9 8 8 8 7 7 7 6 6 7
1 0 0 4 1 1 1 1 1 1 3 3 4 2 3 2 2 5 5 0 1 3 3 6 7 7 8 9 9 9 4 3 3 5 2 12 13 13 12 12 14 15 16 17 17 17 16 15 17 19 20 17 17 17 17 15 15 15 14 14 13 16 14 14 13 13 12 11 10 12 12 10 11 13 11 10 11 9 8 8 8 8 7 8 6 6
2 0 0 0 1 1 0 1 0 2 4 2 2 2 3 4 3 1 1 1 3 4 2 6 7 7 8 11 9 1 3 2 3 1 4 11 14 14 14 14 13 13 12 13 14 16 15 15 15 16 16 15 17 16 15 15 14 13 13 12 13 14 12 13 14 13 13 13 12 13 13 13 12 13 11 11 10 9 8 7 8 8 8 7 7 8
6 3 2 2 1 2 0 1 1 2 0 1 6 1 1 1 1 1 4 3 4 3 4 4 7 6 8 8 2 3 3 2 3 2 5 7 8 11 12 14 14 15 15 15 15 17 15 16 17 17 16 15 17 16 15 16 15 12 12 13 13 12 13 13 14 14 14 13 14 14 14 13 14 11 8 9 10 10 9 9 9 8 8 9 8 8
3 3 1 1 3 1 1 1 0 0 2 1 1 0 0 2 2 1 2 3 1 1 2 3 4 6 8 8 8 6 3 4 3 2 4 6 8 8 9 10 11 12 12 12 15 16 16 15 16 16 16 16 16 16 15 16 13 13 13 14 10 10 12 12 11 10 12 12 11 12 13 13 12 9 9 11 11 10 11 10 9 8 8 8 8 8
3 2 3 1 4 2 1 2 2 4 5 3 3 4 3 3 2 3 2 2 3 3 1 3 5 1 5 6 4 5 6 5 5 7 7 8 9 11 13 13 13 13 14 15 16 15 16 16 18 16 15 14 16 15 15 15 16 16 16 11 12 13 14 14 14 12 13 12 12 12 12 12 11 12 12 12 12 11 10 10 10 9 8 9 8 9
3 1 0 1 3 2 4 5 3 3 2 3 5 4 3 4 2 3 2 4 2 4 3 4 5 1 4 4 3 3 3 4 7 6 4 7 8 8 8 9 9 10 11 12 13 14 15 14 14 16 16 15 16 14 14 14 15 17 15 14 14 15 16 15 15 12 13 12 11 12 13 13 12 12 12 13 10 10 10 11 10 9 9 9 9 9
0 2 2 2 2 3 3 1 1 1 2 3 5 4 2 3 5 2 5 3 5 5 5 2 3 2 2 5 3 2 1 1 2 3 3 5 7 9 10 11 11 12 14 15 14 15 16 15 15 15 16 17 15 14 13 14 15 15 13 14 15 16 16 16 16 14 13 13 12 13 13 14 11 10 10 10 9 8 9 9 10 9 10 9 9 9
3 2 1 1 3 3 0 2 2 3 4 4 2 3 4 5 6 4 4 3 5 5 3 3 2 1 1 2 0 1 1 1 0 3 4 4 5 6 8 9 10 10 10 12 13 16 15 14 18 18 16 16 15 15 15 15 13 13 13 14 14 15 15 14 14 14 14 15 13 12 12 12 14 13 11 11 10 10 9 9 10 10 11 11 10 10
1 2 1 3 2 3 2 3 3 2 2 3 1 1 3 4 6 6 8 6 6 6 6 4 4 2 2 4 3 4 5 2 1 2 3 4 5 6 6 8 9 11 12 11 13 15 14 16 16 18 17 15 15 15 14 15 13 14 16 15 15 15 14 12 13 12 14 13 11 11 10 10 12 11 11 11 11 10 11 11 10 10 9 10 10 11
2 3 2 2 1 1 1 2 4 4 1 2 1 1 2 2 5 4 8 6 7 6 5 6 6 4 4 5 5 6 7 4 3 2 3 3 4 5 7 7 9 12 13 13 11 15 13 14 15 16 15 13 13 14 13 12 12 13 14 14 15 16 15 13 12 11 13 12 12 11 10 9 11 11 10 11 10 10 8 8 11 12 11 10 10 10
2 2 4 2 1 1 2 2 1 1 2 1 1 2 3 6 3 5 7 5 2 5 4 4 7 7 7 6 4 6 5 4 3 2 3 2 2 4 6 9 11 11 12 13 15 15 14 13 14 15 15 13 13 13 13 12 12 13 13 13 14 15 15 14 11 10 11 11 10 12 11 11 11 10 10 10 10 9 10 8 4 1 3 5 12 12
Wind_Direction
165 172 184 196 199 197 192 188 50 46 103 85 100 130 182 179 144 178 207 172 198 171 203 200 204 191 181 189 190 191 190 202 207 208 207 206 199 205 212 218 223 227 229 224 212 198 195 187 178 154 151 150 152 156 163 171 177 175 167 154 145 143 139 141 145 149 141 135 138 143 145 139 142 129 122 105 101 92 83 83 86 87 86 85 81 72
190 195 209 209 205 179 146 171 348 31 31 159 172 182 170 187 194 172 191 154 199 199 194 161 198 199 186 192 191 187 192 202 204 206 209 207 204 210 215 221 224 227 230 223 207 198 184 185 168 158 155 151 156 163 166 175 179 170 154 134 115 109 111 141 163 148 152 160 163 155 149 143 137 133 129 122 104 95 82 74 73 73 77 78 74 70
193 208 213 189 83 108 119 170 205 268 80 9 177 177 171 188 134 153 202 85 178 215 195 162 199 191 194 195 188 192 197 206 207 205 206 203 203 208 216 222 224 224 228 231 226 208 199 186 169 163 155 157 157 166 171 175 171 156 121 113 132 126 129 186 150 157 160 163 155 146 144 136 121 57 55 93 102 100 91 74 68 64 66 73 73 70
194 225 147 117 118 137 166 181 197 192 223 112 170 172 198 153 168 185 180 97 95 220 169 175 185 140 237 221 205 204 206 215 213 212 214 211 212 213 215 215 220 225 230 230 221 214 205 184 174 164 158 160 158 166 171 172 153 113 113 154 138 147 159 174 173 166 157 150 138 124 113 71 84 117 107 97 96 91 89 76 65 61 68 73 76 71
172 46 135 144 160 174 175 177 189 196 208 216 255 196 159 155 196 175 159 132 110 61 135 126 131 222 205 200 208 202 211 215 210 206 213 212 219 221 218 220 222 224 225 228 222 217 207 190 183 172 161 156 159 165 170 166 128 119 149 163 161 162 165 166 158 151 138 128 115 105 91 98 104 109 125 114 88 84 84 83 64 62 63 70 75 71
218 331 156 160 178 174 168 179 194 191 203 190 233 223 165 169 156 112 124 142 171 171 194 165 188 225 190 211 209 200 195 211 203 205 212 209 209 204 207 214 216 224 227 224 221 217 205 193 179 168 157 159 159 161 163 146 136 148 161 164 167 168 161 148 148 145 148 146 140 130 132 141 135 139 147 127 125 116 88 84 88 74 66 71 72 73
204 137 191 175 169 176 178 190 185 184 198 194 207 198 152 90 112 136 154 170 187 205 180 235 218 216 126 210 210 204 205 211 206 211 215 209 207 207 215 216 215 216 217 220 220 212 202 186 171 164 161 161 157 157 155 141 144 154 151 159 172 168 143 141 149 155 154 154 153 149 147 143 156 135 88 80 87 101 101 100 87 80 68 66 79 73
178 188 204 195 174 177 184 193 177 186 187 201 110 163 164 151 116 137 155 206 32 46 64 198 231 242 207 226 208 198 203 208 215 215 216 213 211 212 213 214 214 214 213 211 211 208 202 185 176 167 163 158 156 153 150 146 155 154 154 161 170 164 140 153 160 168 167 161 157 154 132 132 128 134 127 121 104 99 105 96 90 90 80 73 75 81
173 183 187 172 188 184 198 188 146 184 190 162 112 138 168 183 155 160 148 139 118 192 189 200 169 220 235 76 172 182 203 214 218 215 217 219 221 219 216 215 216 215 213 212 208 207 201 187 176 160 157 158 152 153 154 157 159 153 155 160 162 153 150 167 169 167 165 153 153 144 137 111 96 117 120 119 115 110 103 97 91 87 87 81 74 78
205 194 182 174 182 196 142 126 159 177 189 141 170 105 89 142 156 201 211 130 131 202 217 199 181 214 221 119 171 190 207 213 214 213 217 218 218 217 209 211 213 214 216 214 213 203 200 184 175 161 156 156 152 153 157 159 159 156 153 156 160 159 172 172 173 167 161 142 134 134 140 135 137 127 118 121 121 115 109 100 99 97 97 95 91 85
49 309 161 172 197 168 139 151 157 178 179 121 158 194 121 97 147 85 46 138 169 238 235 194 179 211 237 178 187 177 209 201 202 210 220 222 222 219 216 198 197 208 212 213 210 203 196 175 168 161 160 155 148 156 162 163 162 156 153 154 160 178 181 174 176 168 164 159 154 142 137 133 130 130 130 130 125 124 116 112 108 105 99 98 99 98
252 99 167 207 154 129 145 155 178 174 152 154 170 194 178 172 134 187 134 193 222 240 211 147 186 188 233 182 208 208 191 201 194 200 209 213 215 212 212 205 203 210 213 210 203 196 189 178 165 166 161 153 154 158 164 165 164 161 157 158 163 180 181 184 180 171 171 162 150 133 132 131 135 140 143 139 137 132 125 123 122 118 114 107 102 98
242 224 247 261 196 164 168 162 175 165 168 181 162 175 195 182 181 204 180 200 212 223 44 312 144 154 233 227 184 204 213 204 206 207 206 207 209 204 207 205 202 209 211 206 200 193 189 183 170 168 166 153 161 163 166 168 167 163 157 160 164 172 169 188 173 172 168 163 149 141 130 130 137 139 136 131 124 131 133 136 133 132 124 121 111 102
217 78 208 224 179 193 178 176 161 182 185 181 179 176 188 187 185 200 200 217 326 57 343 172 175 227 80 244 209 208 211 208 205 213 220 210 199 191 196 198 198 200 205 203 197 194 190 186 172 168 161 158 160 164 164 165 164 158 159 162 168 172 173 169 173 170 166 156 136 136 134 137 139 135 131 128 132 135 133 135 133 132 128 121 115 113
177 203 223 195 190 170 191 198 178 184 176 184 138 187 198 200 191 185 191 193 211 184 92 153 153 231 184 221 177 195 209 215 216 223 225 225 210 196 195 198 200 198 203 201 196 192 187 186 178 170 164 159 165 166 165 156 143 155 159 168 171 171 173 155 172 165 160 143 137 129 131 136 136 137 133 122 121 128 130 126 123 119 123 121 120 116
203 214 72 190 13 172 193 174 145 135 174 183 153 12 208 213 91 191 91 157 132 141 109 167 219 298 173 30 338 342 323 215 210 218 220 215 198 181 184 192 195 200 201 199 195 190 185 184 174 166 163 163 162 164 159 154 158 161 165 172 169 152 144 153 164 157 132 136 133 134 135 134 128 124 120 115 117 117 120 122 123 123 121 119 118 116
180 210 100 174 212 186 188 153 182 176 182 170 162 200 206 90 105 93 67 30 56 55 217 95 265 236 298 263 52 293 198 212 199 210 210 205 187 180 190 191 189 197 198 195 189 184 181 176 180 169 164 161 158 160 161 165 167 161 159 168 143 149 160 155 159 149 131 131 131 135 136 135 132 129 127 127 126 122 116 115 116 119 118 118 121 121
176 173 107 173 187 208 185 180 178 197 94 116 205 184 71 61 24 150 187 93 207 219 216 130 228 221 155 234 104 120 205 208 197 207 205 198 185 189 195 185 185 194 196 194 185 180 180 173 179 174 166 163 163 163 168 169 166 160 159 156 154 159 153 146 143 141 139 140 136 135 131 132 132 126 123 127 132 131 127 123 120 123 127 127 127 127
221 176 196 193 185 180 98 186 182 206 274 207 197 114 179 183 203 221 137 175 174 199 219 197 353 270 218 220 154 209 205 212 213 203 193 192 195 201 190 183 186 190 190 186 184 181 181 175 176 174 171 166 162 165 167 164 160 146 150 152 153 162 159 150 137 135 138 139 136 137 142 139 130 127 127 129 131 131 132 134 137 135 127 125 131 131
275 198 173 174 197 149 167 187 195 186 185 339 107 182 290 168 214 152 206 29 221 202 186 224 170 240 182 213 196 212 201 205 197 187 199 201 201 194 183 183 185 187 186 183 182 184 185 184 177 174 169 164 158 160 164 161 160 149 145 148 145 131 135 138 134 134 138 137 124 127 128 127 129 133 136 138 139 137 137 138 136 132 132 135 134 133
341 330 185 139 147 148 191 196 200 179 172 175 196 195 174 238 359 233 98 207 201 198 199 231 225 227 177 202 211 219 214 214 183 190 200 206 199 189 184 178 182 185 184 181 181 182 184 186 178 161 164 158 153 154 155 158 154 137 138 139 144 147 154 153 135 142 144 137 134 136 136 136 139 140 139 139 139 136 135 136 137 135 134 133 135 137
249 254 188 123 165 193 196 137 145 172 180 184 194 197 193 170 168 185 207 72 157 213 211 185 249 313 217 177 201 208 209 203 197 195 199 202 187 183 180 173 181 183 184 182 182 182 181 178 172 151 150 146 153 151 157 155 140 145 161 157 145 146 151 145 141 143 141 142 143 141 139 141 142 144 144 143 141 136 137 139 137 134 136 135 135 141
177 91 40 148 182 172 83 147 201 184 184 193 193 192 184 187 200 200 205 185 156 235 39 41 338 266 104 176 272 274 316 310 242 235 138 162 171 175 171 175 183 181 180 183 182 181 175 170 172 158 153 155 155 155 157 152 144 160 164 158 147 151 152 143 143 145 144 142 140 140 142 144 147 148 147 143 141 140 140 138 138 141 138 136 136 138
144 271 221 113 61 305 276 304 244 172 161 168 225 187 182 199 199 210 182 92 187 135 229 210 258 272 194 184 263 255 267 247 191 194 185 166 169 175 174 181 178 177 178 180 182 172 168 160 155 156 156 158 155 155 158 154 148 155 163 158 147 156 148 138 141 145 143 139 136 138 142 147 146 147 146 143 141 141 137 138 140 141 137 135 139 137
179 231 246 118 124 122 95 106 158 181 191 209 200 189 200 143 97 21 91 133 205 211 216 210 235 257 160 292 127 262 168 194 187 187 176 162 167 178 182 179 176 173 172 174 173 167 167 160 156 155 157 162 162 159 161 162 160 154 152 147 148 156 151 140 145 147 145 142 141 144 145 147 149 148 146 142 141 139 138 140 140 143 139 138 139 139
221 168 187 156 145 161 170 182 187 188 199 194 202 144 126 175 152 147 195 181 218 124 192 217 233 256 266 135 69 93 141 179 196 177 178 165 169 175 175 177 174 171 173 169 165 162 165 160 159 158 160 161 161 166 161 165 167 169 160 154 138 149 150 143 150 150 145 146 146 149 147 148 150 149 146 144 143 142 142 144 145 143 142 145 142 143
193 159 234 210 176 179 191 154 28 72 93 202 199 185 171 191 181 189 101 180 212 155 201 211 215 252 276 271 223 170 183 191 179 178 174 166 171 173 171 174 172 172 174 170 165 160 158 160 159 159 163 166 167 167 169 162 161 162 156 150 148 156 152 145 146 148 146 149 149 150 153 152 150 146 145 146 146 142 144 147 147 148 147 148 146 148
112 214 231 224 247 246 208 221 175 186 186 198 189 186 171 169 179 190 200 212 104 133 226 167 198 213 253 264 274 214 184 190 181 184 176 176 175 172 171 170 164 168 171 173 160 155 157 159 155 151 152 153 162 166 162 155 157 155 156 153 153 155 151 141 142 146 148 148 147 147 149 148 145 145 146 144 144 145 145 146 147 146 144 147 149 152
184 248 351 168 244 260 251 249 211 222 224 193 191 166 175 174 174 197 206 158 180 216 225 137 175 209 237 262 270 279 147 180 187 188 191 180 168 168 167 165 166 167 171 174 171 163 160 162 165 157 157 157 159 161 159 156 157 155 155 153 149 153 158 146 143 147 150 150 148 148 146 141 140 141 141 144 146 146 145 147 145 144 147 151 149 148
191 256 230 195 280 270 257 244 225 209 212 212 186 174 177 178 192 196 202 197 199 223 241 249 202 217 238 252 263 54 157 163 159 159 167 174 174 170 170 168 169 169 166 173 176 171 169 168 164 165 162 159 162 167 165 162 162 159 156 154 151 154 158 149 146 148 151 151 149 145 146 144 139 143 145 147 150 151 148 146 145 147 150 152 151 149
194 206 111 103 315 295 302 305 207 204 191 198 195 181 176 185 190 196 201 193 189 241 61 356 211 256 260 276 299 107 121 123 134 166 173 175 174 175 172 171 167 171 177 177 175 173 172 170 169 164 165 169 168 162 162 158 156 148 154 155 150 153 157 153 149 151 151 149 146 146 146 146 148 147 150 152 150 149 150 149 148 151 152 150 151 153
190 252 85 5 301 283 10 303 175 166 183 209 196 194 184 179 188 195 205 169 175 202 184 151 225 246 256 153 298 121 161 169 175 175 176 175 177 174 174 174 175 179 181 180 174 174 173 174 166 169 169 170 163 158 156 155 152 153 157 157 154 151 152 149 147 150 150 145 147 150 151 150 149 150 150 152 152 154 152 149 152 154 154 153 155 158
184 129 264 351 284 278 339 312 148 134 139 224 233 206 186 191 182 167 191 166 198 188 178 204 241 238 281 120 205 223 195 192 181 184 181 181 180 181 179 179 183 184 182 179 174 173 174 171 168 169 163 163 161 163 162 156 157 164 159 157 157 152 158 155 153 148 144 146 151 155 153 150 152 151 150 153 153 153 153 153 155 155 157 162 161 157
114 191 246 30 278 288 337 346 150 140 188 217 69 278 180 180 176 177 191 190 209 185 207 224 244 264 106 193 215 214 201 209 211 191 189 184 178 179 183 185 185 183 183 183 178 175 172 169 173 168 163 165 167 164 160 161 161 161 156 152 149 155 160 159 156 152 147 149 154 156 154 152 151 150 153 154 153 152 155 158 160 159 159 155 158 165
112 214 248 107 269 289 15 307 155 177 209 75 246 231 237 313 189 183 190 196 196 204 246 261 253 241 219 212 210 207 247 252 222 193 183 185 179 180 186 186 184 181 184 181 179 178 173 172 166 154 160 163 162 159 153 154 155 144 141 144 149 153 144 144 147 148 152 155 157 156 157 156 151 149 150 153 153 156 158 159 152 154 158 163 169 169
154 218 160 233 296 269 265 106 172 187 357 336 30 68 146 88 96 75 269 238 220 204 199 220 238 249 174 215 220 229 210 197 194 199 188 184 187 184 178 187 185 183 183 185 184 179 177 172 166 165 165 157 148 154 161 158 154 154 156 155 155 158 157 153 153 150 149 156 159 163 162 158 153 147 147 151 153 155 157 154 156 158 158 161 162 163
160 96 176 275 112 302 24 269 288 311 342 121 123 172 185 167 173 180 196 222 186 200 198 218 236 249 231 217 202 170 153 152 208 227 202 192 193 191 183 182 183 186 185 185 185 183 175 163 158 157 149 152 159 156 162 156 157 156 150 153 156 160 160 160 157 156 154 154 159 159 163 161 155 152 151 151 153 155 152 153 155 155 158 158 162 162
124 202 133 316 308 303 280 315 92 118 174 226 250 324 195 261 115 52 137 247 190 203 209 209 223 184 184 143 160 161 166 177 242 241 201 200 191 187 181 176 180 183 183 181 176 164 155 159 152 141 154 158 157 156 150 149 153 151 154 159 155 154 158 161 165 166 166 168 158 158 159 160 157 155 155 158 159 154 154 156 158 163 167 162 161 166
84 85 121 253 281 251 280 260 255 124 71 241 247 215 95 130 160 199 174 234 246 183 187 199 215 194 183 169 170 167 183 204 234 244 173 182 185 181 174 175 175 175 174 172 170 167 166 162 157 156 158 160 163 162 155 152 151 152 156 156 158 158 157 167 166 168 169 173 171 155 149 154 156 156 156 160 156 155 158 161 166 171 169 160 158 157
42 32 25 246 222 223 238 261 249 221 78 93 252 309 11 123 171 167 197 233 81 353 191 184 208 198 191 180 166 183 190 212 247 353 137 177 177 176 171 167 172 176 176 174 175 171 164 155 147 157 164 167 166 159 156 157 159 158 160 165 162 167 173 176 177 174 166 156 161 163 160 152 153 153 158 158 155 159 162 156 157 163 164 158 161 155
322 133 27 245 262 148 262 329 275 288 266 271 274 325 93 186 196 174 200 55 326 283 205 210 221 205 177 178 184 190 217 42 279 306 292 169 159 173 178 174 175 172 169 171 170 164 168 161 165 166 168 168 161 159 159 159 161 165 163 159 164 177 181 176 166 159 150 147 152 161 164 154 159 163 166 161 158 162 158 157 158 159 161 159 155 147
291 178 93 190 184 237 27 325 318 304 276 305 309 283 220 163 155 196 29 224 266 282 190 208 226 210 197 194 199 81 95 248 295 351 154 169 175 170 170 167 163 166 167 167 156 160 166 165 166 166 164 164 158 158 158 159 160 160 160 162 177 181 169 165 156 150 151 155 159 161 163 166 165 165 165 163 156 158 157 152 154 160 162 158 153 150
173 179 218 190 117 48 356 36 354 137 253 94 312 333 250 298 24 353 296 258 206 269 281 243 226 225 195 210 190 105 100 49 8 48 137 155 157 159 160 165 167 166 163 157 161 171 162 168 170 165 161 157 158 160 162 162 160 155 157 174 179 167 165 156 153 154 155 157 161 166 166 164 162 160 154 153 161 156 154 154 158 160 160 155 155 154
149 200 186 239 202 196 141 168 238 347 309 133 276 286 105 340 342 293 239 341 98 237 303 301 241 217 199 198 185 198 139 95 84 119 134 158 157 153 157 165 162 161 160 163 166 166 164 164 171 169 162 163 163 163 161 162 155 157 168 182 163 144 150 148 144 140 154 160 158 159 164 165 162 155 151 158 163 163 155 159 159 159 163 161 157 157
202 233 195 197 169 196 187 216 191 226 257 288 243 258 261 300 282 256 253 282 328 11 40 300 344 233 198 192 192 208 212 198 159 171 165 170 168 167 169 172 170 168 166 167 171 166 168 168 169 163 161 162 161 161 163 165 161 162 178 165 145 152 154 152 151 152 162 165 167 163 162 161 162 162 166 169 166 163 161 157 157 158 164 163 165 164
16 86 329 136 229 246 281 240 293 258 225 229 201 225 280 322 282 212 9 359 4 325 316 320 329 326 175 192 189 198 224 166 160 168 170 164 168 168 156 152 152 156 159 162 165 164 177 166 161 161 159 163 164 163 163 170 164 171 176 158 160 163 160 155 155 158 164 166 163 162 162 162 164 165 167 165 168 164 162 160 164 162 164 171 172 172
210 141 222 202 11 119 258 53 234 260 314 345 345 4 10 305 287 77 47 356 326 335 333 330 319 346 158 175 231 308 283 161 148 126 140 157 161 164 168 166 163 164 165 170 166 160 176 161 165 163 160 163 164 161 165 170 178 175 157 155 161 162 160 160 161 161 163 163 161 163 167 165 166 162 160 162 165 165 163 163 165 163 165 174 174 175
162 201 227 147 178 189 210 184 246 295 300 316 325 348 352 331 294 75 87 353 313 318 283 322 269 115 171 93 330 46 36 41 57 131 139 153 158 164 166 165 160 162 165 164 156 170 171 164 175 170 162 164 166 169 174 177 174 160 149 156 160 158 155 155 160 164 169 166 163 163 167 167 158 159 167 171 171 172 172 173 172 170 173 175 176 174
55 162 231 156 192 280 288 260 301 313 41 32 351 261 297 293 306 35 36 0 340 347 348 4 48 45 103 113 163 132 112 117 179 164 143 150 155 167 170 166 169 167 166 160 163 173 169 173 168 169 168 169 170 173 173 175 167 155 154 157 156 154 154 159 165 162 165 167 164 162 162 158 164 171 165 167 175 180 178 174 177 178 175 181 177 181
197 207 112 181 197 219 163 148 170 135 174 200 279 334 295 285 284 69 81 29 340 334 352 3 24 21 25 22 28 43 62 67 73 131 131 146 158 154 157 154 166 171 174 175 166 176 166 169 161 163 166 166 170 175 174 167 155 156 157 154 157 159 158 156 161 161 163 164 166 163 160 161 170 173 169 169 172 172 177 187 182 177 174 184 199 191
268 183 174 191 169 31 313 232 258 42 80 31 123 12 359 325 328 65 95 103 321 301 328 352 29 26 34 36 18 42 50 55 67 84 85 118 144 155 157 156 161 171 173 172 171 176 170 166 161 162 165 166 169 174 171 163 158 157 156 154 159 162 158 156 161 161 163 163 167 167 169 168 170 172 171 171 171 173 168 165 188 323 242 220 178 178